Location: Hall+in+Tirol
(47.2830°N, 11.5170°E)
Time: 08:32:45
(UTC+02:00)

Gurwin Techsat 1B - Visible Passes

Search period start: 26 July 2016 00:00
Search period end: 05 August 2016 00:00
Orbit: 812 x 814 km, 98.6° (Epoch: 24 July)

Date Brightness Start Highest point End Pass type
(mag) Time Alt. Az. Time Alt. Az. Time Alt. Az.
26 Jul 9.9 02:44:17 10° NNE 02:49:05 33° E 02:52:03 19° SSE visible
26 Jul 9.4 04:24:11 10° N 04:29:05 39° WNW 04:33:16 14° SW visible
27 Jul 10.5 02:22:02 10° NE 02:26:05 22° E 02:28:56 15° SE visible
27 Jul 8.8 04:01:11 10° N 04:06:26 58° WNW 04:10:08 19° SW visible
28 Jul 10.9 02:00:19 10° ENE 02:03:00 14° E 02:05:40 10° ESE visible
28 Jul 8.6 03:38:20 10° NNE 03:43:41 88° WNW 03:47:01 24° SSW visible
29 Jul 8.9 03:15:35 10° NNE 03:20:52 61° ESE 03:23:52 26° S visible
29 Jul 10.1 04:56:20 10° N 05:00:24 23° WNW 05:04:29 10° WSW visible
30 Jul 9.6 02:52:59 10° NNE 02:57:59 39° E 03:00:44 23° SSE visible
30 Jul 9.6 04:33:08 10° N 04:37:51 33° WNW 04:41:57 13° WSW visible
31 Jul 10.2 02:30:37 10° NE 02:35:01 26° E 02:37:37 18° SE visible
31 Jul 9.0 04:10:05 10° N 04:15:13 49° WNW 04:18:48 19° SW visible
01 Aug 10.7 02:08:37 10° NE 02:11:58 17° E 02:14:29 12° ESE visible
01 Aug 8.6 03:47:10 10° N 03:52:30 75° WNW 03:55:41 25° SSW visible
02 Aug 11.1 01:48:20 10° E 01:48:49 10° E 01:49:19 10° E visible
02 Aug 8.7 03:24:22 10° NNE 03:29:44 72° ESE 03:32:33 28° S visible
02 Aug 10.3 05:05:24 10° NNW 05:09:08 20° WNW 05:12:51 10° WSW visible
03 Aug 9.3 03:01:43 10° NNE 03:06:52 46° E 03:09:25 27° SSE visible
03 Aug 9.8 04:42:06 10° N 04:46:36 29° WNW 04:50:37 12° WSW visible
04 Aug 10.0 02:39:15 10° NNE 02:43:56 30° E 02:46:17 22° SE visible
04 Aug 9.2 04:19:00 10° N 04:23:59 42° WNW 04:27:29 18° SW visible
